Total_Precipitation_Accumulation
0.02 0.03 0.05 0.06 0.06 0.08 0.11 0.21 0.26 0.27 0.33 0.37 0.46 0.53 0.84 1.09 1.19 1.33 1.51 1.75 1.91 2.08 2.16 2.35 2.73 2.98 3.14 3.20 3.40 3.73 4.17 4.55 4.67 4.49 4.41 4.38 4.14 3.83 3.46 3.24 3.24 3.31 3.16 3.22
0.04 0.05 0.05 0.06 0.06 0.09 0.13 0.22 0.29 0.33 0.36 0.37 0.53 0.64 0.88 1.33 1.48 1.44 1.50 1.52 1.56 2.00 2.20 2.42 2.76 2.90 2.85 2.99 3.28 3.72 4.18 4.51 4.41 4.52 4.74 4.70 4.49 3.81 3.45 3.32 3.23 3.13 3.02 2.99
0.05 0.05 0.04 0.05 0.07 0.10 0.15 0.19 0.25 0.31 0.43 0.43 0.55 0.97 1.15 1.44 1.58 1.46 1.41 1.42 1.38 1.57 1.87 2.01 2.21 2.37 2.60 3.02 3.47 3.80 4.10 4.24 4.25 4.45 4.59 4.31 4.11 3.62 3.48 3.46 3.29 3.13 3.12 3.10
0.04 0.05 0.04 0.07 0.10 0.10 0.17 0.16 0.18 0.26 0.43 0.59 0.65 1.29 1.58 1.77 1.65 1.38 1.39 1.44 1.54 1.66 1.75 1.87 1.90 2.20 2.58 3.01 3.59 4.00 4.03 4.09 3.94 4.05 4.17 4.01 3.68 3.44 3.34 3.32 3.09 2.97 2.90 2.89
0.07 0.06 0.06 0.07 0.08 0.09 0.14 0.13 0.15 0.24 0.37 0.59 0.72 1.12 1.59 1.69 1.59 1.29 1.20 1.40 1.63 1.61 1.67 1.90 1.85 2.04 2.31 2.73 3.13 3.54 3.90 3.94 3.73 3.65 3.70 3.85 3.69 3.41 3.20 3.10 3.01 2.94 2.91 2.72
0.09 0.09 0.08 0.09 0.09 0.08 0.10 0.13 0.22 0.35 0.58 0.97 0.76 0.87 1.29 1.54 1.43 1.18 1.19 1.32 1.49 1.66 1.67 1.83 2.08 2.13 2.27 2.54 2.88 3.18 3.39 3.36 3.28 3.23 3.26 3.39 3.47 3.44 3.19 2.99 3.02 2.97 2.83 2.67
0.18 0.19 0.15 0.12 0.12 0.11 0.12 0.23 0.62 1.03 1.33 1.17 0.79 0.87 1.22 1.17 1.01 0.92 1.00 1.27 1.52 1.79 1.81 1.85 2.03 2.14 2.24 2.34 2.52 2.66 2.73 2.76 2.73 2.76 2.73 2.73 2.88 2.96 2.85 2.76 2.83 2.84 2.72 2.60
0.27 0.27 0.20 0.17 0.15 0.15 0.16 0.27 0.66 0.91 1.06 1.00 0.93 1.13 1.20 0.96 0.82 0.83 0.91 1.10 1.40 1.58 1.62 1.73 1.81 1.75 1.76 1.81 1.94 2.10 2.19 2.20 2.16 2.24 2.33 2.35 2.55 2.57 2.59 2.72 2.62 2.65 2.59 2.55
0.15 0.17 0.17 0.17 0.18 0.18 0.23 0.29 0.31 0.51 0.64 1.01 1.22 1.32 1.21 0.88 1.00 1.00 1.08 1.14 1.20 1.26 1.32 1.34 1.37 1.42 1.53 1.57 1.64 1.77 1.87 1.87 1.79 1.85 2.02 2.09 2.16 2.28 2.39 2.50 2.41 2.29 2.31 2.19
0.08 0.13 0.17 0.13 0.14 0.17 0.24 0.37 0.50 0.73 0.98 1.16 1.30 1.54 1.72 1.52 1.42 1.29 1.40 1.62 1.37 1.11 1.15 1.19 1.18 1.22 1.25 1.30 1.42 1.58 1.68 1.81 1.81 1.77 1.82 1.79 1.89 2.00 2.19 2.27 2.16 2.17 2.25 2.19
0.08 0.12 0.18 0.20 0.17 0.22 0.36 0.45 0.55 0.69 0.80 1.08 1.43 1.60 1.39 1.53 1.48 1.41 1.39 1.44 1.32 1.01 0.93 1.03 0.98 1.01 1.07 1.13 1.24 1.40 1.68 1.83 1.76 1.61 1.67 1.77 1.75 1.82 1.94 2.00 1.94 2.03 2.14 2.27
0.11 0.13 0.18 0.23 0.22 0.21 0.30 0.44 0.55 0.71 0.80 0.90 1.15 1.40 1.01 1.16 1.14 1.11 1.17 1.04 0.96 0.90 0.74 0.86 0.91 0.86 0.90 0.95 1.06 1.25 1.47 1.64 1.65 1.60 1.62 1.74 1.81 1.79 1.76 1.74 1.77 1.83 1.86 1.93
0.13 0.18 0.31 0.51 0.47 0.31 0.28 0.30 0.37 0.47 0.62 0.71 1.01 1.32 0.93 0.92 1.03 1.04 1.00 0.99 0.84 0.89 0.82 0.79 0.89 0.93 0.89 0.87 0.99 1.18 1.24 1.45 1.65 1.65 1.62 1.70 1.68 1.64 1.69 1.82 1.88 1.85 1.86 1.89
0.15 0.17 0.28 0.54 0.59 0.46 0.35 0.34 0.36 0.40 0.56 0.59 0.68 1.01 1.02 1.02 1.05 1.12 1.06 0.89 0.75 0.77 0.85 0.81 0.81 0.81 0.74 0.74 0.84 1.05 1.15 1.29 1.46 1.60 1.67 1.77 1.76 1.77 1.87 1.97 2.05 2.00 1.92 1.95
0.14 0.15 0.19 0.27 0.34 0.35 0.32 0.32 0.34 0.37 0.42 0.55 0.63 0.81 0.96 0.95 1.00 1.15 1.04 0.88 0.84 0.74 0.75 0.78 0.73 0.66 0.63 0.66 0.76 0.95 1.11 1.24 1.37 1.59 1.73 1.83 1.88 1.89 1.91 1.92 1.99 1.99 1.88 1.84
0.20 0.21 0.25 0.34 0.36 0.39 0.36 0.36 0.32 0.30 0.29 0.34 0.53 0.78 0.78 0.76 0.82 0.98 0.99 1.04 1.01 0.90 0.74 0.68 0.70 0.71 0.71 0.65 0.68 0.74 0.91 1.09 1.24 1.46 1.60 1.67 1.79 1.90 1.88 1.82 1.86 1.85 1.88 1.92
0.26 0.30 0.39 0.45 0.49 0.56 0.58 0.45 0.44 0.42 0.38 0.42 0.66 0.80 0.67 0.68 0.73 0.77 0.82 0.96 0.96 0.91 0.97 0.96 0.87 0.88 0.77 0.68 0.70 0.73 0.80 0.98 1.18 1.33 1.42 1.54 1.68 1.76 1.77 1.72 1.78 1.87 1.90 1.89
0.32 0.39 0.45 0.48 0.65 0.90 0.68 0.42 0.38 0.39 0.42 0.41 0.52 0.59 0.58 0.63 0.63 0.71 0.83 0.85 0.83 0.74 0.76 0.90 0.97 0.97 0.94 0.84 0.86 0.89 0.93 1.03 1.19 1.33 1.43 1.51 1.63 1.68 1.71 1.69 1.65 1.71 1.73 1.74
0.30 0.45 0.53 0.59 0.72 0.76 0.65 0.52 0.51 0.52 0.56 0.41 0.46 0.53 0.59 0.69 0.73 0.83 0.75 0.72 0.77 0.70 0.78 0.82 0.88 0.97 1.10 1.12 1.09 1.12 1.21 1.28 1.24 1.31 1.45 1.57 1.67 1.72 1.73 1.75 1.71 1.74 1.74 1.70
0.33 0.43 0.58 0.62 0.86 0.96 0.79 0.60 0.62 0.70 1.00 0.68 0.60 0.68 0.75 0.76 1.00 1.08 0.76 0.77 0.90 0.76 0.74 0.81 0.84 0.86 1.04 1.16 1.18 1.21 1.27 1.32 1.28 1.34 1.45 1.58 1.70 1.83 1.80 1.86 1.90 1.87 1.78 1.73
0.63 0.67 0.67 0.68 0.90 1.02 0.72 0.57 0.69 1.22 1.37 0.86 0.78 0.81 0.87 0.93 0.96 0.90 0.77 0.88 1.01 0.85 0.78 0.71 0.77 0.99 1.11 1.16 1.23 1.30 1.27 1.32 1.34 1.47 1.56 1.67 1.76 1.83 1.83 1.91 1.97 1.97 1.91 1.91
0.90 0.90 0.85 0.92 1.18 1.27 0.76 0.68 0.99 1.16 0.88 0.83 0.83 0.80 0.83 0.85 0.82 0.76 0.71 0.77 0.86 0.90 0.88 0.91 1.01 1.11 1.15 1.19 1.34 1.47 1.51 1.44 1.54 1.64 1.63 1.71 1.84 1.70 1.70 1.94 2.02 2.04 2.07 2.04
0.97 1.02 1.07 1.14 1.26 1.08 0.94 1.00 1.07 0.93 0.97 0.88 0.79 0.80 0.78 0.78 0.77 0.77 0.74 0.68 0.74 0.88 0.90 0.99 1.09 1.11 1.13 1.19 1.34 1.59 1.62 1.55 1.56 1.65 1.70 1.71 1.77 1.90 1.99 2.05 2.10 2.06 2.03 2.02
1.10 0.95 1.15 1.30 1.29 1.15 1.12 1.12 1.11 1.03 1.02 0.93 0.82 0.86 0.81 0.84 0.93 0.88 0.86 0.86 0.79 0.83 0.87 0.93 1.04 1.06 1.18 1.27 1.42 1.68 1.73 1.68 1.70 1.77 1.86 1.86 1.83 1.89 2.07 2.25 2.25 2.17 2.03 2.07
1.28 1.20 1.36 1.58 1.51 1.31 1.17 1.04 0.99 0.94 0.89 0.84 0.86 0.92 0.93 0.92 1.00 0.99 1.04 1.07 0.99 0.91 0.89 0.98 1.13 1.25 1.28 1.33 1.41 1.58 1.74 1.87 1.95 1.98 1.97 1.98 2.01 2.05 2.13 2.13 2.11 2.10 2.05 1.99
1.27 1.41 1.69 1.83 1.51 1.34 1.29 1.14 1.10 0.93 0.82 0.82 0.86 0.88 0.95 0.96 1.01 0.99 1.05 1.11 1.08 1.09 1.17 1.18 1.21 1.33 1.39 1.42 1.48 1.59 1.80 2.08 2.28 2.25 2.15 2.15 2.14 2.15 2.12 2.12 1.96 1.83 1.76 1.70